| time (UTC) | temp C | wind direction | speed KPH | gust KPH | rain 1hr cm | rain 24hr cm | rain mn cm | humidity % | barometer mb |
| 20260503204558 | 22 | 12 | 6.4 | 17.7 | 0.00 | 0.00 | 0.00 | 37 | 1020.6 |
| 20260503203102 | 23 | 288 | 8.0 | 17.7 | 0.00 | 0.00 | 0.00 | 35 | 1020.6 |
| 20260503201559 | 22 | 316 | 6.4 | 17.7 | 0.00 | 0.00 | 0.00 | 35 | 1020.7 |
| 20260503200055 | 23 | 347 | 9.7 | 24.1 | 0.00 | 0.00 | 0.00 | 35 | 1020.6 |
| 20260503194546 | 23 | 9 | 11.3 | 25.7 | 0.00 | 0.00 | 0.00 | 35 | 1020.6 |
| 20260503193049 | 23 | 27 | 16.1 | 29.0 | 0.00 | 0.00 | 0.00 | 35 | 1020.6 |
| 20260503191547 | 23 | 13 | 8.0 | 19.3 | 0.00 | 0.00 | 0.00 | 36 | 1020.5 |
| 20260503190048 | 23 | 9 | 12.9 | 20.9 | 0.00 | 0.00 | 0.00 | 37 | 1020.3 |
| 20260503184555 | 23 | 349 | 9.7 | 22.5 | 0.00 | 0.00 | 0.00 | 37 | 1020.3 |
| 20260503183058 | 22 | 22 | 8.0 | 20.9 | 0.00 | 0.00 | 0.00 | 39 | 1020.2 |
| 20260503181554 | 21 | 26 | 1.6 | 11.3 | 0.00 | 0.00 | 0.00 | 39 | 1020.3 |
| 20260503180047 | 20 | 12 | 1.6 | 4.8 | 0.00 | 0.00 | 0.00 | 41 | 1020.3 |
| 20260503174547 | 21 | 120 | 0.0 | 3.2 | 0.00 | 0.00 | 0.00 | 39 | 1020.2 |
| 20260503173057 | 22 | 0 | 0.0 | 9.7 | 0.00 | 0.00 | 0.00 | 36 | 1020.3 |
| 20260503171545 | 22 | 360 | 3.2 | 8.0 | 0.00 | 0.00 | 0.00 | 36 | 1020.3 |
| 20260503081606 | 23 | 16 | 8.0 | 20.9 | 0.00 | 0.00 | 0.00 | 36 | 1024.8 |
| 20260503071543 | 21 | 84 | 0.0 | 3.2 | 0.00 | 0.00 | 0.00 | 47 | 1025.2 |
| 20260503054551 | 10 | 0 | 0.0 | 3.2 | 0.00 | 0.00 | 0.00 | 73 | 1024.9 |
| 20260503053043 | 9 | 0 | 0.0 | 3.2 | 0.00 | 0.00 | 0.00 | 73 | 1024.9 |
| 20260503051548 | 9 | 342 | 3.2 | 11.3 | 0.00 | 0.00 | 0.00 | 73 | 1024.8 |
| 20260503050046 | 8 | 360 | 1.6 | 3.2 | 0.00 | 0.00 | 0.00 | 73 | 1024.9 |
| 20260503044549 | 8 | 340 | 4.8 | 9.7 | 0.00 | 0.00 | 0.00 | 74 | 1024.8 |
| 20260503043050 | 9 | 323 | 3.2 | 11.3 | 0.00 | 0.00 | 0.00 | 72 | 1024.6 |
| 20260503041547 | 10 | 9 | 1.6 | 6.4 | 0.00 | 0.00 | 0.00 | 72 | 1024.5 |
| 20260503040049 | 10 | 340 | 4.8 | 9.7 | 0.00 | 0.00 | 0.00 | 72 | 1024.5 |
| 20260503034542 | 10 | 336 | 3.2 | 8.0 | 0.00 | 0.00 | 0.00 | 72 | 1024.5 |
| 20260503033059 | 10 | 342 | 1.6 | 4.8 | 0.00 | 0.00 | 0.00 | 71 | 1024.5 |
| 20260503031554 | 10 | 313 | 1.6 | 6.4 | 0.00 | 0.00 | 0.00 | 72 | 1024.6 |
| 20260503030044 | 10 | 329 | 3.2 | 11.3 | 0.00 | 0.00 | 0.00 | 71 | 1024.6 |
| 20260503024543 | 11 | 352 | 6.4 | 8.0 | 0.00 | 0.00 | 0.00 | 69 | 1024.6 |
| 20260503023049 | 10 | 351 | 1.6 | 4.8 | 0.00 | 0.00 | 0.00 | 69 | 1024.5 |
| 20260503021545 | 11 | 352 | 3.2 | 4.8 | 0.00 | 0.00 | 0.00 | 67 | 1024.5 |
| 20260503020048 | 12 | 352 | 1.6 | 4.8 | 0.00 | 0.00 | 0.00 | 64 | 1024.3 |
| 20260503014544 | 13 | 344 | 3.2 | 4.8 | 0.00 | 0.00 | 0.00 | 60 | 1024.3 |
| 20260503013040 | 12 | 323 | 3.2 | 6.4 | 0.00 | 0.00 | 0.00 | 61 | 1024.2 |
| 20260503011551 | 13 | 348 | 3.2 | 6.4 | 0.00 | 0.00 | 0.00 | 61 | 1024.6 |
| 20260503010044 | 12 | 11 | 1.6 | 3.2 | 0.00 | 0.00 | 0.00 | 65 | 1024.6 |
| 20260503004546 | 11 | 0 | 0.0 | 3.2 | 0.00 | 0.00 | 0.00 | 66 | 1024.7 |
| 20260503003056 | 11 | 0 | 0.0 | 3.2 | 0.00 | 0.00 | 0.00 | 67 | 1024.8 |
| 20260503001550 | 11 | 0 | 0.0 | 0.0 | 0.00 | 0.00 | 0.00 | 65 | 1025.0 |
| 20260502234602 | 12 | 0 | 0.0 | 0.0 | 0.00 | 0.00 | 0.00 | 62 | 1025.1 |
| 20260502233059 | 13 | 0 | 0.0 | 3.2 | 0.00 | 0.00 | 0.00 | 58 | 1025.0 |
| 20260502231602 | 14 | 0 | 0.0 | 3.2 | 0.00 | 0.00 | 0.00 | 57 | 1025.1 |
| 20260502230051 | 15 | 79 | 0.0 | 1.6 | 0.00 | 0.00 | 0.00 | 54 | 1025.1 |
| 20260502224550 | 15 | 0 | 0.0 | 3.2 | 0.00 | 0.00 | 0.00 | 53 | 1025.1 |
| 20260502223048 | 15 | 352 | 0.0 | 3.2 | 0.00 | 0.00 | 0.00 | 53 | 1025.1 |
| 20260502221559 | 15 | 0 | 1.6 | 3.2 | 0.00 | 0.00 | 0.00 | 54 | 1025.0 |
| 20260502220048 | 15 | 0 | 0.0 | 0.0 | 0.00 | 0.00 | 0.00 | 52 | 1025.1 |
| 20260502214609 | 15 | 0 | 0.0 | 3.2 | 0.00 | 0.00 | 0.00 | 53 | 1025.2 |
| 20260502213052 | 16 | 87 | 0.0 | 3.2 | 0.00 | 0.00 | 0.00 | 50 | 1025.5 |
| 20260502211548 | 16 | 0 | 0.0 | 3.2 | 0.00 | 0.00 | 0.00 | 49 | 1025.3 |